Flag for Burkina Faso

Past Weather in Koudougou, Burkina Faso — Yesterday and Last 2 Weeks

Now
82 °F

Clear.


Feels Like: 87 °F
Forecast: 88 / 74 °F
Wind: 12 mph from South

Location: Ouagadougou Airport

Current Time: Jul 10, 2020 at 1:01:41 am

Latest Report: Jul 10, 2020 at 12:00 am


Visibility: 10 mi

Pressure: 29.92 "Hg

Humidity: 70%

Dew Point: 72 °F

Location of KoudougouLocation

Past Weather in Koudougou — Graph

°F

Koudougou Temperature Yesterday

Maximum temperature yesterday: 95 °F (at 2:00 pm)
Minimum temperature yesterday: 79 °F (at 5:00 am)
Average temperature yesterday: 87 °F

High & Low Weather Summary for the Past Weeks

 TemperatureHumidityPressure
High100 °F (Jul 2, 3:00 pm)100% (Jul 7, 4:00 am)29.95 "Hg (Jul 7, 4:00 am)
Low72 °F (Jul 6, 9:00 pm)35% (Jul 2, 4:00 pm)29.74 "Hg (Jul 7, 3:00 pm)
Average87 °F62%29.85 "Hg
* Reported Jun 24 11:00 pm — Jul 9 11:00 pm, Koudougou. Weather by CustomWeather, © 2020

Note: Actual official high and low records may vary slightly from our data, if they occured in-between our weather recording intervals... More about our weather records

Koudougou Weather History for the Previous 24 Hours

Scroll right to see more
 ConditionsComfort  
Time TempWeatherWind HumidityBarometerVisibility
11:00 pm
Thu, Jul 9
84 °FClear.13 mph70%29.89 "Hg10 mi
10:00 pm86 °FClear.13 mph66%29.92 "Hg10 mi
9:00 pm88 °FClear.12 mph62%29.89 "Hg10 mi
8:00 pm88 °FThunderstorms. Passing clouds.8 mph59%29.86 "HgN/A
7:00 pm86 °FThunderstorms. Passing clouds.5 mph75%29.83 "HgN/A
6:00 pm91 °FScattered clouds.7 mph52%29.80 "HgN/A
5:00 pm93 °FScattered clouds.7 mph49%29.80 "HgN/A
4:00 pm95 °FScattered clouds.9 mph47%29.80 "HgN/A
3:00 pm95 °FScattered clouds.12 mph47%29.80 "HgN/A
2:00 pm95 °FScattered clouds.12 mph47%29.83 "HgN/A
1:00 pm93 °FScattered clouds.8 mph49%29.86 "HgN/A
12:00 pm91 °FPassing clouds.14 mph52%29.83 "HgN/A
11:00 am90 °FPassing clouds.13 mph63%29.89 "HgN/A
10:00 am88 °FSunny.17 mph59%29.89 "Hg10 mi
9:00 am86 °FSunny.13 mph62%29.89 "Hg10 mi
8:00 am82 °FSunny.13 mph74%29.86 "Hg10 mi
7:00 am81 °FSunny.8 mph79%29.86 "Hg10 mi
6:00 am79 °FSunny.7 mph84%29.83 "Hg10 mi
5:00 am79 °FPassing clouds.9 mph84%29.83 "HgN/A
4:00 am81 °FPassing clouds.7 mph79%29.83 "HgN/A
3:00 am81 °FPassing clouds.7 mph70%29.83 "HgN/A
2:00 am82 °FPassing clouds.7 mph70%29.83 "HgN/A
1:00 am82 °FPassing clouds.8 mph70%29.83 "HgN/A
Weather by CustomWeather, © 2020

See weather overview